Falls City, NE

4:16 PM CDT on April 27, 2017 (GMT -0500)
Brenner

Weather History for KFNB - November, 2013

Change the Weather History Date:

Sunday, November 3, 2013

  Actual Average Record
Temperature  
Mean Temperature 46 °F -  
Max Temperature 59 °F 54 °F 81 °F (1978)
Min Temperature 35 °F 36 °F 5 °F (1991)
Degree Days  
Heating Degree Days 19    
Moisture  
Dew Point 34 °F    
Average Humidity 59    
Maximum Humidity 85    
Minimum Humidity 40    
Precipitation  
Precipitation 0.00 in - - ()
Sea Level Pressure  
Sea Level Pressure 29.97 in    
Wind  
Wind Speed 13 mph (SSE)    
Max Wind Speed 29 mph    
Max Gust Speed 38 mph    
Visibility 10 miles    
Events      
Averages and records for this station are not official NWS values.
T = Trace of Precipitation, MM = Missing Value Source: NWS Daily Summary

Daily Weather History Graph

Daily Weather History Graph

Search for Another Location

Airport or City:

Trip Planner

Search our weather history database for the weather conditions in past years. The results will help you decide how hot, cold, wet, or windy it might be!

Date:

Astronomy

Nov. 03, 2013 Rise Set
Actual Time 6:54 AM CST 5:17 PM CST
Civil Twilight 6:25 AM CST 5:45 PM CST
Nautical Twilight 5:53 AM CST 6:17 PM CST
Astronomical Twilight 5:22 AM CST 6:49 PM CST
Moon 6:59 AM CST (11/3) 5:32 PM CST (11/3)
Length of Visible Light 11h 19m
Length of Day
10h 22m
New Moon, 0% of the Moon is Illuminated
Nov 3
New Moon
Nov 9
First Quarter
Nov 17
Full
Nov 25
Last Quarter
Dec 2
New

Hourly Weather History & Observations

Time (CST) Temp. Windchill Dew Point Humidity Pressure Visibility Wind Dir Wind Speed Gust Speed Precip Events Conditions
12:53 AM 39.9 °F 35.1 °F 33.1 °F 77% 30.13 in 10.0 mi South 6.9 mph - N/A   Clear
1:53 AM 39.9 °F 35.8 °F 32.0 °F 73% 30.13 in 10.0 mi South 5.8 mph - N/A   Clear
1:53 AM 39.0 °F 34.0 °F 32.0 °F 76% 30.12 in 10.0 mi South 6.9 mph - N/A   Clear
2:53 AM 39.0 °F 33.4 °F 33.1 °F 79% 30.12 in 10.0 mi South 8.1 mph - N/A   Clear
3:53 AM 39.9 °F 35.8 °F 32.0 °F 73% 30.10 in 10.0 mi South 5.8 mph - N/A   Clear
4:53 AM 36.0 °F 31.1 °F 30.9 °F 82% 30.10 in 10.0 mi SE 5.8 mph - N/A   Clear
5:53 AM 35.1 °F 27.9 °F 30.9 °F 85% 30.09 in 10.0 mi SSE 9.2 mph - N/A   Clear
6:53 AM 39.9 °F 33.4 °F 33.1 °F 77% 30.07 in 10.0 mi SSE 10.4 mph - N/A   Clear
7:53 AM 43.0 °F 36.0 °F 34.0 °F 71% 30.06 in 10.0 mi SSE 13.8 mph - N/A   Clear
8:53 AM 48.9 °F - 34.0 °F 56% 30.05 in 10.0 mi South 18.4 mph 31.1 mph N/A   Clear
9:53 AM 53.1 °F - 33.1 °F 47% 30.02 in 10.0 mi South 25.3 mph 36.8 mph N/A   Clear
10:53 AM 55.9 °F - 33.1 °F 42% 29.99 in 10.0 mi SSE 27.6 mph 34.5 mph N/A   Clear
11:53 AM 55.9 °F - 33.1 °F 42% 29.97 in 10.0 mi SSE 28.8 mph 38.0 mph N/A   Clear
12:53 PM 57.0 °F - 33.1 °F 40% 29.92 in 10.0 mi South 27.6 mph 35.7 mph N/A   Clear
1:53 PM 57.9 °F - 35.1 °F 42% 29.88 in 10.0 mi SSE 20.7 mph 33.4 mph N/A   Clear
2:53 PM 57.9 °F - 36.0 °F 44% 29.87 in 10.0 mi SSE 18.4 mph 32.2 mph N/A   Clear
3:53 PM 55.9 °F - 37.0 °F 49% 29.84 in 10.0 mi SSE 20.7 mph 29.9 mph N/A   Clear
4:53 PM 55.0 °F - 37.0 °F 51% 29.83 in 10.0 mi SSE 19.6 mph 28.8 mph N/A   Clear
5:53 PM 54.0 °F - 36.0 °F 51% 29.83 in 10.0 mi SSE 20.7 mph 29.9 mph N/A   Clear
6:53 PM 54.0 °F - 37.0 °F 53% 29.82 in 10.0 mi SSE 20.7 mph 28.8 mph N/A   Clear
7:53 PM 55.0 °F - 37.0 °F 51% 29.82 in 10.0 mi SSE 16.1 mph 31.1 mph N/A   Clear
8:53 PM 55.0 °F - 35.1 °F 47% 29.82 in 10.0 mi SSE 16.1 mph 23.0 mph N/A   Clear
9:53 PM 55.0 °F - 36.0 °F 49% 29.84 in 10.0 mi South 17.3 mph 24.2 mph N/A   Clear
10:53 PM 55.0 °F - 37.9 °F 53% 29.85 in 10.0 mi South 11.5 mph 19.6 mph N/A   Clear